Find Starlink 30953

NORAD ID: 58491 Int'l Des: 2023-186 Owner: SPXS Country: US Constellation: starlink operational
LEOCIRCULAR

当前视图

正在加载3D地球...

About Starlink 30953

Starlink 30953 (NORAD 58491) is a starlink constellation satellite (v2 mini) launched Dec 3, 2023 by SPXS of US. It operates in LEO, CIRCULAR orbit with a mass of 730.00 kg.

即将过境

Passes for default location (London). Set your location on the main map for personalized predictions.

高度历史

Loading altitude history...

两行轨道根数

1 58491U 23186U 26227.33978457 -.00001912 00000-0 -59988-4 0 9990
2 58491 43.0033 91.5318 0000811 285.6024 74.4738 15.27584306152154
Epoch: Aug 15, 2026 • Age: 8 hours

当前状态

高度 485.7 km
远地点 / 近地点 N/A
速度 7.62 km/s
星下点 -15.35°S, 129.92°W
发射日期 Dec 3, 2023
运行时间 2.6 years
类型 internet

技术详情

分类 Payload
质量 730.00 kg
干质量 700.00 kg
总质量 730.00 kg
长度 0.30 m
直径 4.10 m
跨度 29.00 m
形状 Box + pan
制造商 SPXS
平台类型 Starlink V2M
阶段状态 In Orbit
所有者/国家 SPXS/US

Most Searched